千帆星座-51 (QIANFAN-51)

Basic Information
目录编号:
62252
目录名称:
QIANFAN-51
国际标识:
2024-232R
轨道中心:
EARTH
卫星名称:
千帆星座-51
卫星全名:
千帆星座-51 (QIANFAN-51)
卫星状态:
在轨 (已飞行464 天)
发射日期:
2024-12-05 UTC
国别 :
中国 (CN)
星等 :
--
Orbit Information
数据来源 国际轨道数据 AOE轨道数据
星历时间 2026-03-13T21:50:23+0800
12小时前
查看轨道信息
2026-03-13T16:00:00+0800
17小时前
查看轨道信息
半长轴 7446.699km 7446.7km
偏心率 0.0011697 0.0011827
轨道倾角 89.007° 89.007°
近地点辐角 304.333° 304.998°
升交点赤经 32.072° 32.098°
平近点角 55.671° 312.308°
近地点 1059.851km 1059.755km
远地点 1077.273km 1077.371km
周期 106.587分钟 106.587分钟
每日圈数 13.510055 13.510051
Detailed Information
卫星平台:
51
覆盖范围:
全球
运营商:
上海垣信卫星科技有限公司
运营商所在国:
中国
使用方式:
暂无
Satellite Introduction
千帆星座,也被称为“G60星链”计划,是中国版“星链”的重要组成部分,旨在打造一个由1.4万多颗低轨宽频多媒体卫星构成的庞大星座。千帆星座计划由上海垣信卫星科技有限公司负责实施,于2023年启动建设。该项目是我国第二个低轨卫星大星座,旨在通过构建庞大的卫星网络,为全球用户提供高质量的通信和宽带互联网服务。
2D Orbit Map
3D Orbit Map
Orbit Altitude Analysis Chart
Orbit Inclination Analysis Chart
Orbit Comprehensive Analysis Chart
View Comprehensive Chart